Tracking 28790 objects as of 19-Apr-2024
HD Live streaming from Space Station
objects crossing your sky now

FENGYUN 1C DEB

Track FENGYUN 1C DEB now!
10-day predictions


NORAD ID: 33693
Int'l Code: 1999-025DGE
Perigee: 842.2 km
Apogee: 1,184.6 km
Inclination: 99.2 °
Period: 105.3 minutes
Semi major axis: 7384 km
RCS: 0.0077 m2 (small)
Launch date: May 10, 1999
Source: People's Republic of China (PRC)
Launch site: Taiyaun Space Center, China (TSC)

Note: This is SATELLITE DEBRIS
Your satellite tracking list
Your tracking list is empty




NASA's NSSDC Master Catalog

Two Line Element Set (TLE):
1 33693U 99025DGE 24107.49365204  .00002684  00000-0  26531-2 0  9995
2 33693  99.2246 304.2716 0231837 139.7936 222.0619 13.68131160799448
Source of the keplerian elements: AFSPC